Location: Harrisburg
(40.2740°N, 76.8850°W)
Time: 14:42:04
(UTC-05:00)

Hubble Space Telescope - Visible Passes

Search period start: 24 February 2018 00:00
Search period end: 06 March 2018 00:00
Orbit: 537 x 541 km, 28.5° (Epoch: 24 February)

Date Brightness Start Highest point End Pass type
(mag) Time Alt. Az. Time Alt. Az. Time Alt. Az.
24 Feb 2.8 05:03:15 16° S 05:03:39 16° S 05:06:11 10° SE visible
25 Feb 2.9 04:53:32 16° S 04:53:32 16° S 04:55:47 10° SE visible
26 Feb 3.1 04:43:51 14° SSE 04:43:51 14° SSE 04:45:19 10° SSE visible
27 Feb 3.3 04:34:10 12° SSE 04:34:10 12° SSE 04:34:48 10° SSE visible
